Flag for United Kingdom Weather past 2 weeks in Plymouth, England, United Kingdom

Now
66 °F

Passing clouds.


Feels Like: 66 °F
Forecast: 56 / 63 °F
Wind: 8 mph from South

Location: Exeter Airport

Current Time: Aug 29, 2015 at 1:52:56 PM

Latest Report: Aug 29, 2015 at 1:20 PM


Visibility: N/A

Pressure: 30.09 "Hg

Humidity: 64%

Dew point: 54 °F

Location of PlymouthLocation

Historic Weather in Plymouth — Graph

°F

Plymouth temperature yesterday

Maximum temperature yesterday: 68 °F (at 1:50 PM)
Minimum temperature yesterday: 46 °F (at 5:50 AM)
Average temperature yesterday: 60 °F

Past Weeks' High & Low Weather Summary

 TemperatureHumidityPressure
High72 °F (Aug 18, 3:20 PM)100% (Aug 14, 12:20 PM)30.09 "Hg (Aug 14, 12:20 PM)
Low45 °F (Aug 16, 1:20 AM)49% (Aug 15, 4:20 PM)29.45 "Hg (Aug 24, 6:20 AM)
Average60 °F86%29.88 "Hg
* Reported Aug 14 12:20 PM — Aug 29 12:50 PM, Plymouth, Weather by CustomWeather, © 2015

Note: Actual official high and low records may vary slightly from our data, if they occured in-between our weather recording intervals... More about our weather records

Advertising

Plymouth weather history for previous 24 hours

 ConditionsComfort  
Time TempWeatherWind HumidityBarometerVisibility
12:50 PM
Sat, Aug 29
66 °FPassing clouds.8 mph64%30.09 "HgN/A
12:20 PM66 °FPassing clouds.6 mph60%30.09 "HgN/A
11:50 AM66 °FPassing clouds.6 mph64%30.09 "HgN/A
10:50 AM64 °FPassing clouds.6 mph73%30.09 "HgN/A
10:20 AM64 °FPassing clouds.6 mph78%30.09 "HgN/A
9:50 AM63 °FPassing clouds.5 mph88%30.09 "HgN/A
8:50 AM59 °FPassing clouds.5 mph100%30.09 "HgN/A
8:20 AM59 °FPassing clouds.2 mph100%30.09 "HgN/A
7:50 AM57 °FPassing clouds.2 mph100%30.09 "HgN/A
6:50 AM55 °FPassing clouds.3 mph100%30.09 "HgN/A
6:20 AM57 °FPassing clouds.2 mph94%30.09 "HgN/A
2:20 AM59 °FClear.7 mph94%30.09 "Hg10 mi
1:50 AM59 °FClear.6 mph94%30.09 "Hg10 mi
1:20 AM59 °FClear.5 mph94%30.07 "Hg10 mi
12:50 AM59 °FClear.6 mph88%30.09 "Hg10 mi
12:20 AM59 °FPassing clouds.6 mph88%30.09 "HgN/A
11:50 PM
Fri, Aug 28
59 °FClear.7 mph88%30.09 "Hg10 mi
10:50 PM59 °FClear.3 mph88%30.09 "Hg10 mi
10:20 PM59 °FClear.2 mph88%30.07 "Hg10 mi
9:50 PM59 °FPassing clouds.3 mph88%30.07 "HgN/A
9:20 PM59 °FPassing clouds.5 mph88%30.07 "HgN/A
8:50 PM61 °FPassing clouds.5 mph77%30.07 "HgN/A
8:20 PM61 °FPassing clouds.7 mph77%30.07 "HgN/A
7:50 PM61 °FPassing clouds.8 mph77%30.07 "HgN/A
7:20 PM63 °FPassing clouds.9 mph73%30.04 "HgN/A
6:50 PM63 °FPassing clouds.12 mph68%30.04 "HgN/A
6:20 PM64 °FPassing clouds.12 mph64%30.04 "HgN/A
5:50 PM66 °FPassing clouds.13 mph60%30.04 "HgN/A
5:20 PM66 °FPassing clouds.13 mph60%30.04 "HgN/A
4:50 PM66 °FPassing clouds.14 mph60%30.04 "HgN/A
4:20 PM64 °FPassing clouds.13 mph64%30.04 "HgN/A
3:50 PM66 °FPassing clouds.14 mph60%30.04 "HgN/A
3:20 PM68 °FPassing clouds.15 mph56%30.01 "HgN/A
2:50 PM66 °FPassing clouds.14 mph60%30.01 "HgN/A
2:20 PM68 °FPassing clouds.14 mph60%30.01 "HgN/A
1:50 PM68 °FPassing clouds.13 mph60%30.01 "HgN/A
1:20 PM64 °FPassing clouds.13 mph64%30.01 "HgN/A
Weather by CustomWeather, © 2015

See weather overviewHow to use our weather pages